2023/02/17 00:00:00,40.2,-5.2
2023/02/17 00:10:00,40.2,-4.9
2023/02/17 00:20:00,40.2,-5.2
2023/02/17 00:30:00,40.2,-5.3
2023/02/17 00:40:00,40.2,-5.2
2023/02/17 00:50:00,40.2,-5.2
2023/02/17 01:00:00,40.2,-5.2
2023/02/17 01:10:00,40.2,-5.3
2023/02/17 01:20:00,40.2,-5.3
2023/02/17 01:30:00,40.2,-5.3
2023/02/17 01:40:00,40.2,-5.4
2023/02/17 01:50:00,40.2,-5.2
2023/02/17 02:00:00,40.2,-5.4
2023/02/17 02:10:00,40.2,-5.6
2023/02/17 02:20:00,40.2,-5.4
2023/02/17 02:30:00,40.2,-5.4
2023/02/17 02:40:00,40.2,-5.4
2023/02/17 02:50:00,40.2,-5.6
2023/02/17 03:00:00,40.2,-5.7
2023/02/17 03:10:00,40.2,-5.5
2023/02/17 03:20:00,40.2,-5.5
2023/02/17 03:30:00,40.2,-5.6
2023/02/17 03:40:00,40.2,-5.8
2023/02/17 03:50:00,40.2,-5.4
2023/02/17 04:00:00,40.2,-5.4
2023/02/17 04:10:00,40.2,-5.4
2023/02/17 04:20:00,40.2,-5.4
2023/02/17 04:30:00,40.2,-5.6
2023/02/17 04:40:00,40.2,-5.6
2023/02/17 04:50:00,40.2,-5.6
2023/02/17 05:00:00,40.2,-5.5
2023/02/17 05:10:00,40.2,-5.4
2023/02/17 05:20:00,40.2,-5.4
2023/02/17 05:30:00,40.2,-5.2
2023/02/17 05:40:00,40.2,-5.4
2023/02/17 05:50:00,40.2,-5.2
2023/02/17 06:00:00,40.2,-5.2
2023/02/17 06:10:00,40.1,-5.2
2023/02/17 06:20:00,40.1,-4.9
2023/02/17 06:30:00,40.1,-4.8
2023/02/17 06:40:00,40.1,-4.4
2023/02/17 06:50:00,40.1,-4.3
2023/02/17 07:00:00,40.0,-4.3
2023/02/17 07:10:00,40.0,-4.0
2023/02/17 07:20:00,39.9,-3.6
2023/02/17 07:30:00,40.0,-3.5
2023/02/17 07:40:00,40.0,-3.2
2023/02/17 07:50:00,39.9,-3.3
2023/02/17 08:00:00,40.0,-2.8
2023/02/17 08:10:00,39.9,-2.4
2023/02/17 08:20:00,39.9,-2.3
2023/02/17 08:30:00,39.9,-2.0
2023/02/17 08:40:00,39.7,-1.7
2023/02/17 08:50:00,39.7,-1.4
2023/02/17 09:00:00,39.7,-1.2
2023/02/17 09:10:00,39.7,-0.9
2023/02/17 09:20:00,39.7,-0.3
2023/02/17 09:30:00,39.7, 0.3
2023/02/17 09:40:00,39.6, 0.8
2023/02/17 09:50:00,39.5, 1.4
2023/02/17 10:00:00,39.4, 1.9
2023/02/17 10:10:00,39.3, 1.7
2023/02/17 10:20:00,39.2, 2.4
2023/02/17 10:30:00,39.2, 1.9
2023/02/17 10:40:00,39.1, 2.3
2023/02/17 10:50:00,38.8, 2.7
2023/02/17 11:00:00,38.6, 3.3
2023/02/17 11:10:00,38.4, 4.0
2023/02/17 11:20:00,38.3, 4.2
2023/02/17 11:30:00,38.1, 4.3
2023/02/17 11:40:00,37.9, 5.3
2023/02/17 11:50:00,37.9, 5.8
2023/02/17 12:00:00,37.8, 6.0
2023/02/17 12:10:00,37.5, 5.8
2023/02/17 12:20:00,37.4, 6.2
2023/02/17 12:30:00,37.3, 6.2
2023/02/17 12:40:00,37.2, 6.4
2023/02/17 12:50:00,37.0, 6.8
2023/02/17 13:00:00,36.9, 7.0
2023/02/17 13:10:00,37.0, 6.5
2023/02/17 13:20:00,36.8, 6.1
2023/02/17 13:30:00,36.7, 4.6
2023/02/17 13:40:00,36.4, 4.8
2023/02/17 13:50:00,36.2, 5.2
2023/02/17 14:00:00,36.0, 6.6
2023/02/17 14:10:00,35.6, 7.6
2023/02/17 14:20:00,35.6, 8.1
2023/02/17 14:30:00,35.4, 8.2
2023/02/17 14:40:00,35.3, 8.0
2023/02/17 14:50:00,35.1, 8.7
2023/02/17 15:00:00,34.7, 7.2
2023/02/17 15:10:00,34.6, 7.1
2023/02/17 15:20:00,34.5, 6.0
2023/02/17 15:30:00,34.4, 8.0
2023/02/17 15:40:00,34.3, 8.1
2023/02/17 15:50:00,34.2, 7.5
2023/02/17 16:00:00,34.2, 5.9
2023/02/17 16:10:00,34.2, 4.6
2023/02/17 16:20:00,34.2, 3.8
2023/02/17 16:30:00,34.3, 3.6
2023/02/17 16:40:00,34.2, 3.1
2023/02/17 16:50:00,34.2, 2.9
2023/02/17 17:00:00,34.1, 2.3
2023/02/17 17:10:00,34.2, 1.9
2023/02/17 17:20:00,34.2, 1.7
2023/02/17 17:30:00,34.1, 1.6
2023/02/17 17:40:00,34.1, 1.2
2023/02/17 17:50:00,34.0, 1.0
2023/02/17 18:00:00,34.0, 0.9
2023/02/17 18:10:00,34.0, 0.7
2023/02/17 18:20:00,33.9, 0.6
2023/02/17 18:30:00,33.9, 0.7
2023/02/17 18:40:00,33.9, 0.6
2023/02/17 18:50:00,33.9, 0.6
2023/02/17 19:00:00,33.9, 0.2
2023/02/17 19:10:00,33.9, 0.5
2023/02/17 19:20:00,33.9, 0.6
2023/02/17 19:30:00,33.9, 0.4
2023/02/17 19:40:00,33.8, 0.5
2023/02/17 19:50:00,33.8, 0.4
2023/02/17 20:00:00,33.8, 0.7
2023/02/17 20:10:00,33.7, 0.7
2023/02/17 20:20:00,33.7, 0.4
2023/02/17 20:30:00,33.7, 0.4
2023/02/17 20:40:00,33.7, 0.6
2023/02/17 20:50:00,33.7, 0.5
2023/02/17 21:00:00,33.7, 1.0
2023/02/17 21:10:00,33.7, 0.4
2023/02/17 21:20:00,33.7, 0.5
2023/02/17 21:30:00,33.7, 0.4
2023/02/17 21:40:00,33.7, 0.7
2023/02/17 21:50:00,33.7, 0.5
2023/02/17 22:00:00,33.6, 0.5
2023/02/17 22:10:00,33.5, 0.4
2023/02/17 22:20:00,33.5, 0.5
2023/02/17 22:30:00,33.4, 0.7
2023/02/17 22:40:00,33.4, 0.2
2023/02/17 22:50:00,33.4, 0.3
2023/02/17 23:00:00,33.5, 0.0
2023/02/17 23:10:00,33.4, 0.0
2023/02/17 23:20:00,33.4, 0.0
2023/02/17 23:30:00,33.4, 0.1
2023/02/17 23:40:00,33.4, 0.2
2023/02/17 23:50:00,33.4, 0.2
